EW3360 Weather Reports


Display with metric or nautical units.
time (UTC)temp
F
wind
direction
speed
MPH
gust
MPH
rain 1hr
in
rain 24hr
in
rain mn
in
humidity
%
barometer
mb
20260503220028 64 85 1.0 2.0 0.00 0.01 0.01 47 1017.0
20260503214527 64 85 0.0 4.0 0.00 0.01 0.01 44 1017.0
20260503213027 63 43 0.0 5.0 0.00 0.01 0.01 46 1017.1
20260503211528 63 40 0.0 5.0 0.00 0.01 0.01 44 1017.2
20260503210027 63 59 2.0 7.0 0.00 0.01 0.01 46 1017.3
20260503204528 63 40 1.0 4.0 0.00 0.01 0.01 47 1017.4
20260503203032 64 78 2.0 4.0 0.00 0.01 0.01 46 1017.7
20260503201526 63 21 1.0 8.0 0.00 0.01 0.01 46 1017.9
20260503200025 64 14 3.0 7.0 0.00 0.01 0.01 45 1018.1
20260503194523 64 360 3.0 8.0 0.00 0.01 0.01 43 1018.3
20260503193023 64 38 4.0 10.0 0.00 0.01 0.01 42 1018.5
20260503191523 65 5 3.0 6.0 0.00 0.01 0.01 43 1018.9
20260503190024 64 351 2.0 6.0 0.00 0.01 0.01 46 1018.9
20260503184520 65 340 3.0 6.0 0.00 0.01 0.01 43 1019.0
20260503183021 65 346 1.0 4.0 0.00 0.01 0.01 43 1019.1
20260503181517 64 61 2.0 5.0 0.00 0.01 0.01 40 1019.4
20260503180017 64 320 2.0 4.0 0.00 0.01 0.01 40 1019.4
20260503174519 65 221 1.0 4.0 0.00 0.01 0.01 39 1019.5
20260503173014 64 36 2.0 5.0 0.00 0.01 0.01 39 1019.6
20260503171514 64 56 2.0 6.0 0.00 0.01 0.01 43 1020.1
20260503081545 32 330 0.0 2.0 0.00 0.00 0.00 95 1018.4
20260503071547 34 330 0.0 1.0 0.00 0.00 0.00 94 1017.9
20260503070126 34 330 0.0 1.0 0.00 0.00 0.00 94 1017.7
20260503054524 35 330 0.0 2.0 0.00 0.00 0.00 93 1017.5
20260503053018 35 330 0.0 3.0 0.00 0.00 0.00 93 1017.6
20260503051520 35 330 0.0 2.0 0.00 0.00 0.00 92 1017.6
20260503050014 36 330 0.0 1.0 0.00 0.00 0.00 92 1017.5
20260503044519 36 330 0.0 1.0 0.00 0.00 0.00 92 1017.3
20260503043014 36 330 0.0 1.0 0.00 0.00 0.00 91 1017.2
20260503041507 37 330 0.0 2.0 0.00 0.00 0.00 91 1016.9
20260503040006 37 330 0.0 1.0 0.00 0.00 0.00 90 1017.0
20260503034502 37 330 0.0 2.0 0.00 0.00 0.00 89 1016.8
20260503033100 38 330 0.0 2.0 0.00 0.00 0.00 88 1016.7
20260503031557 38 330 0.0 1.0 0.00 0.00 0.00 87 1016.5
20260503030100 39 330 0.0 1.0 0.00 0.00 0.00 86 1016.3
20260503024551 40 330 0.0 2.0 0.00 0.00 0.00 85 1016.2
20260503023055 40 330 0.0 2.0 0.00 0.00 0.00 84 1016.0
20260503021555 41 330 0.0 1.0 0.00 0.00 0.00 82 1015.9
20260503020045 42 330 0.0 1.0 0.00 0.00 0.00 81 1015.8
20260503014540 43 330 0.0 1.0 0.00 0.00 0.00 78 1015.6
20260503013039 44 330 0.0 2.0 0.00 0.00 0.00 77 1015.4
20260503011545 45 330 0.0 2.0 0.00 0.00 0.00 74 1015.0
20260503010036 46 330 1.0 2.0 0.00 0.00 0.00 74 1014.8
20260503004527 47 330 0.0 3.0 0.00 0.00 0.00 71 1014.5
20260503003025 49 113 0.0 4.0 0.00 0.00 0.00 68 1014.3
20260503001523 51 319 0.0 5.0 0.00 0.00 0.00 62 1014.0
20260503000036 52 199 1.0 3.0 0.00 0.00 0.00 54 1013.7
20260502234522 53 173 1.0 3.0 0.00 0.00 0.00 49 1013.3
20260502233018 53 170 0.0 5.0 0.00 0.00 0.00 49 1013.2
20260502231518 54 169 1.0 4.0 0.00 0.00 0.00 48 1013.0
20260502230017 54 200 1.0 5.0 0.00 0.00 0.00 49 1012.8
20260502224519 54 215 1.0 5.0 0.00 0.00 0.00 51 1012.8
20260502223026 54 205 1.0 4.0 0.00 0.00 0.00 53 1012.7
20260502221519 55 227 1.0 3.0 0.00 0.00 0.00 54 1012.6